sat.trackr.live / text

‹ back to catalog

STARLINK-3805

NORAD 52377 · 2022-045AY

PAYLOAD ACTIVE UNKNOWN

§ Identity

Operator
Country
US
Launch date
2022-04-29
Launch site
AFETR
Launch vehicle
Mass (kg)
RCS (m²)

Purposes: comms

External: N2YO · Heavens-Above · Gunter

§ Orbital elements

Epoch: 2026-05-25T03:24:25.180704Z

Period
95.44 min
Inclination
53.2128°
Eccentricity
0.0001197
Mean motion
15.08834733 rev/d
Perigee alt
538.9 km
Apogee alt
540.6 km
Semi-major
6,917.9 km
B*
-2.7169e-6
RAAN
206.1343°
Arg perigee
98.1931°
Mean anomaly
261.9196°
Rev number
22,745

§ Raw data

STARLINK-38051 52377U 22045AY  26145.14195811 -.00000331  00000+0 -27169-5 0  99932 52377  53.2128 206.1343 0001197  98.1931 261.9196 15.08834733227451

JSON: /api/v1/satellites/52377 · /tle

For live sub-satellite position, see the globe view (requires WebGL).

§ Visibility from observer

Set your observer location to see the next 7 days of passes ≥ 10°. The values pass through the URL so the page stays shareable.

No JS? Fill the form by hand. The geolocation button needs JavaScript.